Weather History for KOMH - January, 2014

Change the Weather History Date:

Saturday, January 11, 2014

  Actual Average Record
Temperature  
Mean Temperature 46 °F -  
Max Temperature 55 °F 41 °F 68 °F (1950)
Min Temperature 37 °F 22 °F -5 °F (1962)
Degree Days  
Heating Degree Days 19    
Moisture  
Dew Point 47 °F    
Average Humidity 98    
Maximum Humidity 100    
Minimum Humidity 67    
Precipitation  
Precipitation 0.52 in - - ()
Sea Level Pressure  
Sea Level Pressure 29.73 in    
Wind  
Wind Speed 3 mph (South)    
Max Wind Speed 17 mph    
Max Gust Speed 24 mph    
Visibility 6 miles    
Events Fog , Rain , Thunderstorm    
Averages and records for this station are not official NWS values.
T = Trace of Precipitation, MM = Missing Value Source: NWS Daily Summary

Daily Weather History Graph

Daily Weather History Graph

Search for Another Location

Airport or City:

Trip Planner

Search our weather history database for the weather conditions in past years. The results will help you decide how hot, cold, wet, or windy it might be!

Date:

Astronomy

Jan. 11, 2014 Rise Set
Actual Time 7:28 AM EST 5:11 PM EST
Civil Twilight 6:59 AM EST 5:41 PM EST
Nautical Twilight 6:26 AM EST 6:13 PM EST
Astronomical Twilight 5:55 AM EST 6:45 PM EST
Moon 1:54 PM EST (1/11) 3:32 AM EST (1/11)
Length of Visible Light 10h 41m
Length of Day
9h 43m
Waxing Gibbous, 83% of the Moon is Illuminated
Jan 11
Waxing Gibbous
Jan 15
Full
Jan 24
Last Quarter
Jan 30
New
Feb 6
First Quarter

Hourly Weather History & Observations

Time (EST) Temp. Windchill Dew Point Humidity Pressure Visibility Wind Dir Wind Speed Gust Speed Precip Events Conditions
12:15 AM 37.4 °F - 37.4 °F 100% 30.13 in 2.5 mi Calm Calm - N/A   Overcast
12:35 AM 37.4 °F - 37.4 °F 100% 30.11 in 1.5 mi Calm Calm - 0.02 in Rain Heavy Rain
12:55 AM 37.4 °F - 37.4 °F 100% 30.10 in 2.0 mi Calm Calm - 0.03 in Rain Rain
1:15 AM 37.4 °F - 37.4 °F 100% 30.09 in 1.8 mi Calm Calm - 0.03 in Rain Light Rain
1:35 AM 39.2 °F - 39.2 °F 100% 30.07 in 3.0 mi Calm Calm - 0.03 in Rain Rain
1:55 AM 39.2 °F - 39.2 °F 100% 30.05 in 3.0 mi Calm Calm - 0.03 in Rain Rain
2:15 AM 39.2 °F - 39.2 °F 100% 30.05 in 4.0 mi Calm Calm - 0.01 in   Overcast
2:35 AM 39.2 °F - 39.2 °F 100% 30.04 in 1.2 mi Calm Calm - 0.01 in Rain Light Rain
2:55 AM 39.2 °F - 39.2 °F 100% 30.04 in 1.5 mi Calm Calm - 0.01 in   Overcast
3:15 AM 39.2 °F - 39.2 °F 100% 30.03 in 1.2 mi Calm Calm - N/A   Drizzle
3:35 AM 39.2 °F - 39.2 °F 100% 30.01 in 1.2 mi Calm Calm - N/A   Mostly Cloudy
3:55 AM 39.2 °F - 39.2 °F 100% 30.00 in 1.0 mi Calm Calm - N/A   Overcast
4:15 AM 39.2 °F - 39.2 °F 100% 29.98 in 1.2 mi Calm Calm - N/A   Overcast
4:35 AM 39.2 °F - 39.2 °F 100% 29.96 in 0.5 mi Calm Calm - N/A Fog Fog
4:55 AM 39.2 °F - 39.2 °F 100% 29.95 in 0.8 mi Calm Calm - N/A   Overcast
5:15 AM 39.2 °F - 39.2 °F 100% 29.93 in 0.8 mi Calm Calm - 0.02 in Rain Light Rain
5:35 AM 39.2 °F - 39.2 °F 100% 29.93 in 1.2 mi Calm Calm - 0.02 in Rain Rain
5:55 AM 41.0 °F 39.0 °F 41.0 °F 100% 29.92 in 1.8 mi South 3.5 mph - 0.04 in Rain Light Rain
6:15 AM 41.0 °F - 41.0 °F 100% 29.91 in 3.0 mi Calm Calm - N/A   Overcast
6:35 AM 41.0 °F 39.0 °F 41.0 °F 100% 29.90 in 1.5 mi SSW 3.5 mph - N/A Rain Light Rain
6:55 AM 41.0 °F - 41.0 °F 100% 29.89 in 1.5 mi Calm Calm - N/A   Drizzle
7:15 AM 41.0 °F 39.0 °F 41.0 °F 100% 29.88 in 1.5 mi South 3.5 mph - N/A   Drizzle
7:35 AM 41.0 °F - 41.0 °F 100% 29.86 in 1.8 mi Calm Calm - N/A Rain Rain
7:55 AM 41.0 °F - 41.0 °F 100% 29.86 in 1.5 mi Calm Calm - 0.01 in Rain Rain
8:15 AM 41.0 °F - 41.0 °F 100% 29.83 in 1.2 mi Calm Calm - N/A   Light Drizzle
8:35 AM 41.0 °F - 41.0 °F 100% 29.83 in 1.2 mi Calm Calm - N/A   Light Drizzle
8:55 AM 41.0 °F - 41.0 °F 100% 29.81 in 1.0 mi Calm Calm - 0.01 in   Mostly Cloudy
9:15 AM 42.8 °F 38.6 °F 42.8 °F 100% 29.85 in 1.0 mi SSW 6.9 mph 17.3 mph N/A   Overcast
9:35 AM 42.8 °F - 42.8 °F 100% 29.80 in 3.0 mi Calm Calm - 0.09 in Rain Rain
9:55 AM 42.8 °F - 42.8 °F 100% 29.79 in 5.0 mi Calm Calm - 0.12 in Rain , Thunderstorm Light Thunderstorms and Rain
10:15 AM 42.8 °F 39.3 °F 42.8 °F 100% 29.76 in 3.0 mi ESE 5.8 mph - 0.03 in Rain Heavy Rain
10:35 AM 44.6 °F 40.7 °F 44.6 °F 100% 29.74 in 10.0 mi SSE 6.9 mph - 0.07 in Rain Light Rain
10:55 AM 46.4 °F 45.2 °F 46.4 °F 100% 29.72 in 10.0 mi South 3.5 mph - 0.07 in   Overcast
11:15 AM 46.4 °F 42.9 °F 46.4 °F 100% 29.71 in 10.0 mi South 6.9 mph - N/A   Overcast
11:35 AM 46.4 °F 43.5 °F 46.4 °F 100% 29.69 in 10.0 mi SSW 5.8 mph - N/A Rain Rain
11:55 AM 46.4 °F - 46.4 °F 100% 29.66 in 4.0 mi Calm Calm - 0.03 in Rain Rain
12:15 PM 46.4 °F 45.2 °F 46.4 °F 100% 29.65 in 3.0 mi SSW 3.5 mph - 0.01 in Rain Light Rain
12:35 PM 46.4 °F 41.5 °F 46.4 °F 100% 29.64 in 7.0 mi WSW 10.4 mph 18.4 mph 0.02 in Rain Light Rain
12:55 PM 50.0 °F - 50.0 °F 100% 29.65 in 10.0 mi South 10.4 mph - 0.03 in Rain Light Rain
1:15 PM 51.8 °F - 51.8 °F 100% 29.61 in 10.0 mi South 11.5 mph 17.3 mph 0.01 in Rain Light Rain
1:35 PM 51.8 °F - 51.8 °F 100% 29.60 in 10.0 mi South 6.9 mph - 0.02 in   Overcast
1:55 PM 51.8 °F - 51.8 °F 100% 29.61 in 10.0 mi South 10.4 mph 19.6 mph 0.02 in Rain Light Rain
2:15 PM 53.6 °F - 53.6 °F 100% 29.58 in 10.0 mi SSW 4.6 mph - 0.01 in Rain Rain
2:35 PM 53.6 °F - 53.6 °F 100% 29.60 in 10.0 mi South 6.9 mph - 0.01 in   Drizzle
2:55 PM 53.6 °F - 53.6 °F 100% 29.59 in 7.0 mi Calm Calm - 0.03 in Rain Rain
3:15 PM 53.6 °F - 53.6 °F 100% 29.58 in 5.0 mi Calm Calm - 0.03 in Rain Rain
3:35 PM 53.6 °F - 53.6 °F 100% 29.59 in 10.0 mi SSE 3.5 mph - 0.06 in Rain Light Rain
3:55 PM 53.6 °F - 53.6 °F 100% 29.56 in 10.0 mi SE 3.5 mph - 0.07 in Rain Light Rain
4:15 PM 53.6 °F - 53.6 °F 100% 29.55 in 10.0 mi SSE 5.8 mph - 0.01 in   Overcast
4:35 PM 53.6 °F - 53.6 °F 100% 29.55 in 10.0 mi SSE 8.1 mph - 0.01 in   Overcast
4:55 PM 53.6 °F - 53.6 °F 100% 29.50 in 10.0 mi SE 9.2 mph - 0.01 in   Overcast
5:15 PM 53.6 °F - 53.6 °F 100% 29.46 in 10.0 mi ESE 4.6 mph - N/A   Mostly Cloudy
5:35 PM 53.6 °F - 53.6 °F 100% 29.48 in 10.0 mi SSE 3.5 mph - N/A   Mostly Cloudy
5:55 PM 53.6 °F - 53.6 °F 100% 29.48 in 10.0 mi South 6.9 mph - N/A   Mostly Cloudy
6:15 PM 53.6 °F - 53.6 °F 100% 29.50 in 10.0 mi South 8.1 mph - N/A   Scattered Clouds
6:35 PM 55.4 °F - 55.4 °F 100% 29.52 in 10.0 mi South 10.4 mph - N/A   Mostly Cloudy
6:55 PM 55.4 °F - 55.4 °F 100% 29.50 in 10.0 mi South 12.7 mph 19.6 mph N/A   Scattered Clouds
7:15 PM 55.4 °F - 55.4 °F 100% 29.50 in 10.0 mi South 12.7 mph 18.4 mph N/A   Scattered Clouds
7:35 PM 55.4 °F - 55.4 °F 100% 29.50 in 10.0 mi South 12.7 mph 20.7 mph N/A   Scattered Clouds
7:55 PM 55.4 °F - 55.4 °F 100% 29.51 in 10.0 mi South 9.2 mph 20.7 mph N/A   Scattered Clouds
8:15 PM 55.4 °F - 55.4 °F 100% 29.51 in 10.0 mi SSW 11.5 mph 21.9 mph N/A   Scattered Clouds
8:35 PM 55.4 °F - 55.4 °F 100% 29.52 in 10.0 mi South 11.5 mph 19.6 mph N/A   Clear
8:55 PM 55.4 °F - 55.4 °F 100% 29.54 in 10.0 mi SSW 10.4 mph 20.7 mph N/A   Scattered Clouds
9:15 PM 53.6 °F - 53.6 °F 100% 29.55 in 10.0 mi South 9.2 mph - N/A   Mostly Cloudy
9:35 PM 53.6 °F - 53.6 °F 100% 29.57 in 10.0 mi West 17.3 mph 24.2 mph N/A Rain Light Rain
9:55 PM 53.6 °F - 51.8 °F 94% 29.56 in 10.0 mi SSW 5.8 mph - 0.01 in Rain Light Rain
10:15 PM 53.6 °F - 51.8 °F 94% 29.56 in 10.0 mi Calm Calm - N/A   Overcast
10:35 PM 53.6 °F - 51.8 °F 94% 29.56 in 10.0 mi SSW 5.8 mph - N/A   Mostly Cloudy
10:55 PM 53.6 °F - 50.0 °F 88% 29.56 in 10.0 mi SSW 8.1 mph - N/A   Mostly Cloudy
11:15 PM 53.6 °F - 46.4 °F 77% 29.58 in 10.0 mi SSW 8.1 mph - N/A   Mostly Cloudy
11:35 PM 53.6 °F - 42.8 °F 67% 29.58 in 10.0 mi SW 9.2 mph - N/A   Scattered Clouds
11:55 PM 51.8 °F - 42.8 °F 71% 29.59 in 10.0 mi SSW 6.9 mph - N/A   Clear